TimeCST,TemperatureF,Dew PointF,Humidity,Sea Level PressureIn,VisibilityMPH,Wind Direction,Wind SpeedMPH,Gust SpeedMPH,PrecipitationIn,Events,Conditions,WindDirDegrees,DateUTC
12:53 AM,48.9,43.0,80,30.12,10.0,Calm,Calm,-,N/A,,Clear,0,2012-11-07 06:53:00
1:53 AM,50.0,44.1,80,30.14,10.0,Calm,Calm,-,N/A,,Clear,0,2012-11-07 07:53:00
2:53 AM,52.0,42.1,69,30.14,10.0,NNW,4.6,-,N/A,,Clear,330,2012-11-07 08:53:00
3:53 AM,50.0,42.1,74,30.13,10.0,North,4.6,-,N/A,,Clear,10,2012-11-07 09:53:00
4:53 AM,46.9,42.1,83,30.13,9.0,Calm,Calm,-,N/A,,Clear,0,2012-11-07 10:53:00
5:53 AM,48.0,42.1,80,30.14,9.0,West,4.6,-,N/A,,Clear,280,2012-11-07 11:53:00
6:53 AM,45.0,39.9,82,30.16,10.0,Calm,Calm,-,N/A,,Clear,0,2012-11-07 12:53:00
7:53 AM,50.0,43.0,77,30.18,10.0,Calm,Calm,-,N/A,,Clear,0,2012-11-07 13:53:00
8:53 AM,57.0,42.1,57,30.20,10.0,North,5.8,-,N/A,,Clear,350,2012-11-07 14:53:00
9:53 AM,63.0,42.1,46,30.20,10.0,North,4.6,-,N/A,,Clear,10,2012-11-07 15:53:00
10:53 AM,66.9,37.0,33,30.19,10.0,Variable,3.5,-,N/A,,Clear,0,2012-11-07 16:53:00
11:53 AM,70.0,35.1,28,30.16,10.0,North,6.9,-,N/A,,Clear,360,2012-11-07 17:53:00
12:53 PM,71.1,30.9,23,30.13,10.0,NW,6.9,-,N/A,,Clear,310,2012-11-07 18:53:00
1:53 PM,72.0,33.1,24,30.11,10.0,WNW,8.1,-,N/A,,Clear,300,2012-11-07 19:53:00
2:53 PM,73.0,34.0,24,30.11,10.0,NNW,5.8,-,N/A,,Clear,340,2012-11-07 20:53:00
3:53 PM,71.1,34.0,26,30.11,10.0,Calm,Calm,-,N/A,,Clear,0,2012-11-07 21:53:00
5:53 PM,62.1,41.0,46,30.11,10.0,Calm,Calm,-,N/A,,Clear,0,2012-11-07 23:53:00
6:53 PM,60.1,39.9,47,30.12,10.0,Calm,Calm,-,N/A,,Clear,0,2012-11-08 00:53:00
7:53 PM,57.0,39.9,53,30.12,10.0,Calm,Calm,-,N/A,,Clear,0,2012-11-08 01:53:00
8:53 PM,53.1,41.0,64,30.13,10.0,SE,4.6,-,N/A,,Clear,130,2012-11-08 02:53:00
9:53 PM,55.9,39.9,55,30.14,10.0,Calm,Calm,-,N/A,,Clear,0,2012-11-08 03:53:00
10:53 PM,55.0,39.0,55,30.13,10.0,SSE,3.5,-,N/A,,Clear,160,2012-11-08 04:53:00
11:53 PM,48.9,41.0,74,30.12,10.0,ESE,3.5,-,N/A,,Clear,120,2012-11-08 05:53:00